SCP
0 0 0 0 0 0 0 0 0 -0 0 -0 -0 -0 0 0 0 0 0 0 0 0 0 0 0 0 0 0 0 0 0 0 0 0 0 0 0 0 0 0 0 0 0 0 0 0 0 0 0 0 0 0 0 0
0 0 0 0 0 0 0 0 -0 0 0 0 0 -0 0 0 0 0 0 0 0 0 0 0 0 0 0 0 0 0 0 0 0 0 0 0 0 0 0 0 0 0 0 0 0 0 0 0 0 0 0 0 0 0
0 0 0 0 0 0 0 0 -0 0 0 0 0 0 0 -0 0 0 0 0 0 0 0 0 0 0 0 0 0 0 0 0 0 0 0 0 0 0 0 0 0 0 0 0 0 -0 0 -0 -0 -0 -0 -0 0 0
0 0 0 -0 -0 0 0 0 0 0 0 0 0 0 0 0 0 0 0 0 0 0 0 0 0 0 0 0 0 0 0 0 0 0 0 0 0 0 0 0 0 0 0 0 0 0 -0 -0 -0 -0 -0 -0 -0 -0
0 0 0 0 0 0 0 0 0 0 0 0 0 0 0 0 0 0 0 0 0 0 0 0 0 0 0 0 0 0 0 0 0 0 0 0 0 0 0 0 0 0 0 0 0 0 0 0 0 0 0 -0 -0 -0
0 -0 0 0 0 0 0 0 0 -0 0 0 0 0 0 0 -0 0 0 0 0 0 0 0 0 0 0 0 0 0 0 0 0 0 0 0 0 0 0 0 0 0 0 0 0 0 0 0 0 0 0 0 0 -0
0 0 0 0 0 0 0 0 0 0 0 0 0 0 0 0 0 0 0 0 0 0 0 0 0 0 0 0 0 0 0 0 0 0 0 0 0 0 0 0 0 0 0 0 0 0 0 0 0 0 0 0 0 -0
0 0 0 -0 -0 -0 0 0 -0 -0 -0 0 0 -0 -0 -0 0 0 0 0 0 0 0 0 0 0 0 0 0 0 0 0 0 0 0 0 0 0 0 0 0 0 0 0 0 0 0 0 0 0 0 0 0 0
0 0 0 -0 -0 0 0 -0 0 -0 -0 -0 0 0 0 0 0 0 0 0 0 0 0 0 0 0 0 0 0 0 0 0 0 0 0 0 0 0 0 0 0 0 0 0 0 0 0 0 0 0 0 0 0 0
0 0 0 -0 0 0 0 -0 0 0 -0 -0 0 0 0 0 0 0 0 0 0 0 0 0 0 0 0 0 0 0 0 0 0 0 0 0 0 0 0 0 0 0 0 0 0 0 0 0 0 0 0 0 0 0
-0 0 0 0 0 -0 -0 -0 -0 -0 0 0 0 0 0 0 0 0 0 0 0 0 0 0 0 0 0 0 0 0 0 0 0 0 0 0 0 0 0 0 0 0 0 0 0 0 0 0 0 0 0 0 0 0
-0 0 0 0 0 -0 -0 -0 -0 0 0 -0 -0 -0 0 0 0 0 0 0 0 0 0 0 0 0 0 0 0 0 0 0 0 0 0 0 0 0 0 0 0 0 0 0 0 0 0 0 0 0 0 0 -0 0
0 0 -0 0 0 -0 0 -0 -0 -0 0 0 -0 -0 0 0 0 0 0 0 0 0 0 0 0 0 0 0 0 0 0 0 0 0 0 0 0 0 0 0 0 0 0 0 0 0 0 0 0 0 0 0 0 0
0 0 0 -0 0 -0 -0 -0 -0 0 0 0 0 0 0 0 0 0 0 0 0 0 0 0 0 0 0 0 0 0 0 0 0 0 0 0 0 0 0 0 0 0 0 0 0 0 0 0 0 0 0 0 0 0
0 0 0 0 0 0 0 0 0 0 0 0 0 0 0 0 0 0 0 0 0 0 0 0 0 0 0 0 0 0 0 0 0 0 0 0 0 0 0 0 0 0 0 0 0 0 0 0 0 0 0 0 0 0
0 0 0 0 -0 0 0 0 0 0 0 0 0 0 0 0 0 0 0 0 0 0 0 0 0 0 0 0 0 0 0 0 0 0 0 0 0 0 0 0 0 0 0 0 0 0 0 0 0 0 0 0 0 0
0 0 -0 0 0 0 0 0 0 0 0 0 0 0 0 0 0 0 0 0 0 0 0 0 0 0 0 0 0 0 0 0 0 0 0 0 0 0 0 0 0 0 0 0 0 0 0 0 0 0 0 0 0 0
0 0 0 0 0 0 0 0 0 0 0 0 0 0 0 0 0 0 0 0 0 0 0 0 0 0 0 0 0 0 0 0 0 0 0 0 0 0 0 0 0 0 0 0 0 0 0 0 0 0 0 0 0 0
0 0 0 0 0 0 0 0 0 0 0 0 0 0 0 0 0 0 0 0 0 0 0 0 0 0 0 0 0 0 0 0 0 0 0 0 0 0 0 0 0 0 0 0 0 0 0 0 0 0 0 0 0 0
0 0 0 0 0 0 0 0 0 0 0 0 0 0 0 0 0 0 0 0 0 0 0 0 0 0 0 0 0 0 0 0 0 0 0 0 0 0 0 0 0 0 0 0 0 0 0 0 -0 0 0 -0 -0 0
0 0 0 0 0 0 0 0 0 0 0 0 0 0 0 0 0 0 0 0 0 0 0 0 0 0 0 0 0 0 0 0 0 0 0 0 0 0 0 0 0 0 0 -0 -0 -0 -0 -0 -0 0 -0 -0 -0 0
0 0 0 0 0 0 0 0 0 0 0 0 0 0 0 0 0 0 0 0 0 0 0 0 0 0 0 0 0 0 0 0 0 0 0 0 0 0 0 0 0 0 0 0 -0 -0 0 0 0 -0 -0 -0 -0 -0
0 0 0 0 0 0 0 0 0 0 0 0 0 0 0 0 0 0 0 0 0 0 0 0 0 0 0 0 0 0 0 0 0 0 0 0 0 0 0 0 0 0 0 0 0 0 -0 -0 -0 -0 -0 -0 -0 -0
0 0 0 0 0 0 0 0 0 0 0 0 0 0 0 0 0 0 0 0 0 0 0 0 0 0 0 0 0 0 0 0 0 0 0 0 0 0 0 0 0 0 0 0 0 0 0 0 -0 -0 -0 -0 -0 -0
0 0 0 0 0 0 0 0 -0 -0 0 0 0 0 0 0 0 0 0 0 0 0 0 0 0 0 0 0 0 0 0 0 0 0 0 0 0 0 0 0 0 0 0 0 0 0 0 0 -0 -0 -0 -0 -0 -0
0 0 0 0 0 0 0 0 -0 -0 -0 -0 -0 0 0 0 -0 0 0 0 0 0 0 0 0 0 0 0 0 0 0 0 0 0 0 0 0 0 0 0 0 0 0 0 0 -0 -0 -0 -0 -0 -0 -0 -0 -0
0 0 0 0 0 0 0 0 0 -0 -0 0 0 0 0 0 0 0 0 0 0 0 0 0 0 0 0 0 0 0 0 0 0 0 0 0 0 0 0 0 0 0 0 0 0 -0 -0 -0 0 -0 -0 -0 -0 -0
0 0 0 0 0 0 0 -0 -0 0 0 0 0 0 0 0 0 0 0 0 0 0 0 0 0 0 0 0 0 0 0 0 0 0 0 0 0 0 0 0 0 0 0 0 -0 -0 0 -0 -0 -0 -0 -0 -0 0
0 0 0 0 0 0 0 0 0 0 0 0 0 -0 -0 -0 -0 0 0 0 0 0 0 0 0 0 0 0 0 0 0 0 0 0 0 0 0 0 0 0 0 0 0 0 -0 -0 -0 -0 -0 -0 0 0 0 0
0 0 0 0 0 -0 0 0 0 0 0 0 -0 -0 0 -0 0 0 0 0 0 0 0 0 0 0 0 0 0 0 0 0 0 0 0 0 0 0 0 0 0 0 0 0 -0 -0 0 0 0 0 0 0 0 0
0 0 0 0 0 0 0 -0 0 0 0 -0 -0 -0 0 0 0 0 0 0 0 0 0 0 0 0 0 0 0 0 0 0 0 0 0 0 0 0 0 0 0 0 0 0 0 0 0 0 0 0 0 0 0 0
0 0 0 0 0 0 -0 0 -0 -0 -0 -0 -0 0 0 0 0 0 0 0 0 0 0 0 0 0 0 0 0 0 0 0 0 0 0 0 0 0 0 0 0 0 0 0 0 0 0 0 0 0 0 0 0 0
0 0 0 0 0 0 0 0 -0 0 -0 0 0 0 0 0 0 0 0 0 0 0 0 0 0 0 0 0 0 0 0 0 0 0 0 0 0 0 0 0 0 0 0 0 0 0 0 0 0 0 0 0 0 0
Wind_Speed_500mb
81 82 83 86 86 87 84 83 82 81 78 72 69 69 72 65 67 66 85 95 75 27 50 37 40 31 17 49 18 21 11 2 5 6 8 8 7 9 3 7 8 6 4 5 7 15 14 43 12 13 7 18 32 35
81 83 85 86 87 88 90 86 82 77 77 72 70 72 66 64 68 67 87 60 72 54 20 19 29 38 55 53 44 25 18 16 24 7 1 6 2 3 9 6 5 5 8 4 1 1 6 33 38 27 26 19 32 37
84 89 93 94 91 87 85 86 83 77 77 67 63 69 73 70 66 67 67 67 52 38 26 33 43 54 53 67 54 27 26 40 24 23 11 6 6 8 6 9 3 9 5 6 8 5 14 13 14 2 10 15 12 17
87 96 103 100 97 96 88 78 78 77 71 64 58 59 68 73 66 70 62 67 70 23 8 14 26 42 45 52 73 74 69 39 43 41 9 6 6 13 8 8 10 10 9 8 9 8 20 9 20 13 14 9 1 8
92 105 107 100 101 104 84 74 73 68 64 64 61 56 58 56 53 53 58 53 58 31 10 8 14 32 60 60 68 80 74 57 36 13 8 8 10 8 0 5 4 12 13 8 17 2 8 9 14 13 8 4 5 11
99 109 112 90 96 85 56 64 64 59 63 62 61 60 57 52 42 34 40 52 46 32 10 6 25 48 56 65 58 70 77 64 45 18 7 11 10 18 7 7 1 11 6 9 3 11 1 5 9 6 8 14 17 21
102 111 99 81 75 66 58 61 68 60 58 63 66 61 54 47 44 37 8 13 37 26 12 5 6 15 43 43 48 42 55 20 17 14 7 13 10 11 4 7 5 3 1 4 4 6 9 11 10 17 16 19 25 24
99 104 106 74 72 67 52 45 42 45 61 62 52 50 50 51 48 46 48 28 15 21 14 5 2 4 21 12 7 12 14 14 11 11 5 5 4 6 4 7 10 9 6 7 4 13 12 16 13 19 23 27 28 28
92 103 113 77 59 62 30 35 35 30 35 36 23 23 19 20 25 41 25 20 18 13 6 4 5 1 2 4 8 7 7 4 6 5 5 14 2 7 2 6 9 13 9 20 22 19 7 11 20 25 28 26 33 37
83 91 97 94 45 44 43 38 32 29 32 27 13 8 7 8 26 37 20 11 7 14 14 5 9 2 10 5 2 4 11 3 3 7 14 5 2 9 10 11 12 12 14 20 24 9 24 25 31 34 34 31 33 39
76 80 84 86 73 46 45 45 43 35 26 14 10 9 19 16 19 11 10 11 11 7 15 10 16 4 25 6 0 5 4 1 5 8 10 1 4 4 9 9 11 14 15 16 20 23 24 31 37 41 41 35 34 35
75 74 71 76 72 60 51 45 45 24 17 14 9 6 7 8 10 12 4 4 9 3 8 3 14 15 12 13 5 4 5 3 9 3 6 4 3 13 17 16 14 16 17 18 18 22 22 24 28 36 39 39 37 36
77 70 69 69 60 70 56 50 33 12 16 8 5 4 12 11 14 9 3 5 5 10 17 16 5 10 9 12 2 4 4 7 4 5 6 3 1 23 25 23 17 16 18 17 17 19 21 22 23 30 35 33 35 33
76 66 60 58 58 62 67 50 19 9 6 4 6 8 7 8 7 2 1 4 4 7 15 11 7 4 8 6 3 3 2 3 5 3 7 1 16 27 25 20 22 23 22 22 22 21 21 22 21 23 27 28 24 21
70 57 50 57 69 59 62 41 25 9 5 6 7 4 6 6 8 5 8 8 12 10 11 2 5 7 5 7 4 5 7 5 3 5 3 15 22 25 24 21 21 21 24 24 20 18 17 17 18 20 18 18 15 12
63 68 61 69 65 57 55 39 28 9 10 11 18 11 7 6 5 10 16 9 19 7 6 7 4 8 7 3 6 8 5 7 1 5 14 21 21 22 23 20 18 19 21 23 20 17 17 15 14 15 14 9 7 5
67 71 70 55 47 51 40 19 11 13 14 13 10 23 16 20 14 7 9 18 17 8 3 4 9 7 3 6 6 6 1 2 3 12 17 19 22 23 20 18 16 15 14 16 18 18 16 15 12 7 6 13 11 10
64 63 38 41 44 30 21 7 12 15 17 19 11 12 37 22 11 17 15 24 10 8 6 4 6 11 5 4 5 5 8 12 6 10 16 19 18 18 20 17 15 14 14 14 16 15 12 11 12 16 14 14 15 17
39 32 40 33 25 7 8 17 16 11 14 14 19 20 24 25 39 25 15 22 29 22 14 10 11 4 2 4 5 9 12 19 17 18 15 19 17 14 12 12 13 15 16 18 18 21 20 17 17 15 15 17 23 24
30 27 28 29 8 7 12 16 15 16 9 9 13 13 14 15 15 27 29 27 23 12 15 8 3 2 5 15 18 22 19 17 19 15 11 13 11 10 11 14 18 20 23 24 26 25 25 26 26 24 24 26 29 34
25 25 27 18 17 27 17 13 16 12 11 13 9 8 11 21 17 20 22 22 18 12 4 8 11 12 11 13 13 14 11 11 9 5 6 4 7 12 18 20 22 25 29 31 31 31 31 34 31 29 29 34 37 40
22 22 16 21 18 14 18 23 11 8 9 9 8 10 11 8 11 17 13 24 11 10 11 15 16 15 11 10 9 8 6 6 4 5 7 10 16 20 23 26 26 31 33 34 33 33 33 32 30 30 31 34 32 33
14 14 16 25 12 17 9 17 10 14 7 5 6 8 8 8 9 9 11 10 9 18 18 13 11 10 8 8 8 5 5 5 10 14 17 20 24 27 28 30 31 34 36 35 32 32 33 32 30 30 30 30 29 30
17 16 21 19 30 10 14 18 13 13 10 9 7 6 7 11 9 12 4 6 15 20 15 13 5 2 8 7 10 13 15 14 19 23 25 27 30 31 30 32 32 33 33 31 28 30 30 30 29 28 27 26 26 26
13 28 19 17 24 17 15 12 13 9 7 7 6 7 6 10 5 6 1 10 16 22 19 16 14 12 14 17 18 18 18 18 21 27 28 27 29 29 29 29 30 31 30 23 25 26 29 27 26 25 25 24 24 24
17 23 13 13 11 10 4 8 10 7 5 9 5 13 9 6 8 2 4 16 14 19 19 15 13 15 16 18 20 19 21 22 21 24 25 23 23 22 24 25 26 29 27 26 26 23 25 25 24 22 21 21 21 21
12 8 13 17 9 8 7 6 5 5 7 9 6 8 5 7 2 4 7 12 13 14 13 11 11 14 17 20 21 21 20 16 17 24 27 24 22 22 22 20 23 26 24 23 23 22 21 20 20 20 20 20 18 16
10 11 2 14 7 11 4 5 5 5 5 10 7 8 4 2 2 6 5 9 9 9 11 14 18 20 22 23 24 25 25 23 23 24 24 23 23 22 22 21 20 22 21 20 19 20 19 19 20 21 19 17 16 14
7 16 6 8 4 7 6 2 3 6 10 4 2 1 2 3 8 7 5 6 8 10 13 17 21 23 23 23 22 20 19 16 15 15 17 20 19 18 17 17 17 17 16 16 15 15 17 18 18 17 16 16 14 13
10 18 6 5 6 4 8 7 8 8 8 5 4 4 5 7 13 12 10 9 9 11 14 16 17 17 15 13 13 12 13 14 14 15 12 12 13 13 13 13 13 14 14 13 14 14 15 14 13 12 11 10 9 9
9 10 3 3 3 3 1 4 6 7 7 7 6 5 2 2 7 15 12 10 11 12 12 12 13 14 14 13 11 12 12 11 11 10 11 11 11 10 10 9 9 9 9 9 10 10 10 10 10 10 11 12 12 12
7 5 2 2 3 5 7 6 4 3 4 4 3 4 3 2 2 3 7 7 8 8 9 10 11 11 10 10 10 9 10 10 10 10 10 9 9 8 7 5 5 5 6 7 7 9 10 11 11 12 13 13 13 13
5 4 3 4 3 1 5 12 3 2 4 2 2 2 2 1 1 4 6 7 7 7 7 9 11 10 9 8 7 7 8 8 8 9 9 8 7 5 3 2 1 3 5 6 7 9 10 11 11 11 12 13 13 14
Wind_Direction_500mb
310 309 307 305 305 302 300 298 294 291 290 288 289 285 278 276 266 260 263 248 233 256 268 235 229 239 212 204 195 186 107 301 39 118 138 207 161 221 72 241 217 212 256 256 242 220 239 333 23 68 351 355 4 11
312 312 308 304 302 299 297 295 294 295 290 284 283 284 286 277 271 265 256 265 239 235 224 188 255 259 242 233 221 179 180 163 180 96 14 91 194 48 153 247 266 287 170 217 231 168 157 78 109 114 74 44 18 17
315 316 313 311 307 302 299 293 291 292 293 281 284 285 280 281 271 262 256 258 224 220 213 239 234 257 247 235 223 206 221 224 201 214 159 190 197 131 162 238 171 303 180 187 58 257 203 199 270 84 106 59 21 26
319 317 313 306 300 296 293 294 290 288 292 281 284 294 280 272 269 264 243 258 235 218 194 226 246 232 254 239 241 238 234 229 231 220 183 163 185 185 191 190 191 195 127 189 253 264 271 252 130 158 144 106 143 299
322 322 319 311 308 303 283 285 289 287 291 284 285 284 293 291 268 259 269 264 231 198 177 184 237 251 246 245 239 235 228 220 197 185 195 191 172 130 134 100 187 193 199 201 255 316 287 78 112 106 116 118 239 287
328 327 325 316 315 310 280 284 286 289 284 284 285 287 279 284 295 270 231 238 229 226 247 232 256 248 252 249 245 236 229 212 205 172 172 182 196 167 162 183 268 145 188 266 243 289 125 184 128 36 314 317 307 313
334 336 334 324 320 322 299 293 287 288 285 287 286 277 267 264 265 262 209 185 176 183 203 210 225 194 221 218 211 205 200 189 191 152 164 166 176 186 133 184 114 78 46 239 281 333 158 132 271 326 314 299 303 307
337 339 342 328 329 317 307 306 302 298 296 293 290 273 260 258 255 253 250 237 213 198 207 186 50 185 175 167 145 145 148 146 142 133 97 117 43 118 216 66 33 317 325 214 314 344 295 289 299 304 306 303 297 297
335 341 350 336 337 354 335 319 315 322 344 344 307 266 252 245 232 232 219 220 197 193 118 83 152 222 88 80 112 103 129 130 143 136 210 136 273 202 29 15 5 351 347 302 314 320 252 307 313 312 313 307 305 304
333 339 345 356 348 354 356 350 336 331 338 345 352 49 57 19 125 134 133 126 75 30 51 80 349 80 7 14 35 101 24 126 132 245 125 124 132 106 35 11 346 329 326 324 334 302 307 312 316 318 320 321 313 307
330 334 340 348 2 4 357 358 341 319 330 347 14 34 70 56 49 52 54 42 3 45 22 13 22 353 21 54 337 42 158 180 130 249 145 180 292 125 9 7 339 327 322 318 309 309 310 310 314 314 317 319 313 305
329 329 332 339 354 350 352 348 3 14 45 48 83 63 12 50 62 74 31 15 44 114 4 21 336 12 10 11 15 37 163 86 223 146 102 209 81 20 356 350 341 334 322 309 308 309 307 307 309 309 315 320 318 315
323 323 328 328 333 352 344 337 333 322 328 307 311 34 8 345 50 88 97 347 52 356 1 1 32 13 2 14 348 344 203 218 80 57 198 205 50 352 348 342 339 337 325 318 320 318 315 313 310 311 316 318 317 316
321 318 318 326 328 328 342 336 336 326 319 295 48 30 89 337 50 93 119 117 65 6 355 359 332 59 355 42 3 2 11 53 76 137 218 67 350 340 344 341 334 342 345 343 342 334 325 319 320 320 321 323 324 321
323 321 317 320 328 324 326 325 319 298 221 82 30 93 52 155 68 54 61 91 26 17 20 62 57 26 343 62 53 12 353 253 211 223 238 336 344 347 349 349 347 347 352 354 347 347 345 338 337 333 331 335 336 332
326 318 317 321 326 318 306 304 316 253 79 68 56 82 101 78 356 37 37 43 21 24 36 42 78 48 355 76 65 178 109 248 288 234 324 339 349 355 355 354 350 349 351 352 356 356 358 353 353 354 351 348 11 27
321 319 321 324 321 313 311 286 297 56 64 52 47 56 71 67 82 62 38 9 10 25 80 73 64 209 322 38 357 328 211 141 250 326 337 346 346 347 351 352 350 350 349 357 3 6 10 13 9 358 35 53 57 77
322 322 335 329 328 327 320 22 81 67 66 57 75 54 63 68 66 48 35 26 43 70 46 111 93 49 107 174 289 308 341 335 328 346 339 344 349 347 348 354 359 3 3 6 9 9 18 38 58 63 67 77 92 97
330 338 336 338 328 329 33 31 36 84 71 85 87 73 77 77 58 60 64 56 65 77 101 61 65 78 255 244 256 319 334 330 320 332 342 344 345 344 355 5 29 43 48 51 54 56 56 60 68 77 88 101 104 108
352 348 14 22 42 63 68 35 42 72 69 73 70 58 70 71 64 52 59 64 68 56 49 48 144 314 292 304 307 305 309 308 310 322 344 356 9 31 62 73 75 75 74 72 70 70 75 78 79 86 95 103 110 110
2 13 17 17 43 54 68 42 58 62 89 78 74 63 81 60 43 36 31 27 60 39 43 45 5 350 335 323 318 320 320 321 328 341 355 25 70 85 90 88 90 89 86 82 81 81 83 82 85 92 102 103 106 112
2 7 21 35 50 62 62 35 58 60 68 89 58 47 46 37 28 22 23 46 58 27 1 345 349 345 351 355 346 341 354 22 68 112 125 121 111 102 98 96 98 91 88 86 87 87 88 89 94 98 101 101 105 107
2 24 46 26 67 45 18 18 53 28 63 2 39 43 22 28 33 22 66 58 52 360 351 355 358 0 1 8 3 14 70 99 130 124 120 116 109 103 102 100 97 96 94 90 89 91 91 92 93 94 95 99 103 105
42 48 29 35 24 4 354 25 26 22 45 30 41 26 11 10 5 55 55 36 2 10 26 28 26 24 52 78 89 91 99 111 119 118 115 116 113 107 104 101 99 96 91 90 91 91 90 89 89 90 90 93 96 97
64 15 23 4 15 22 23 5 356 22 38 341 47 10 353 348 61 49 48 348 7 18 30 47 66 85 100 92 87 90 99 112 120 119 115 116 111 109 107 105 102 97 93 91 91 90 89 87 87 87 89 91 91 91
65 21 38 2 1 42 328 24 12 352 340 2 7 325 346 71 57 316 272 344 355 8 17 34 60 83 95 100 100 102 107 113 114 116 110 107 107 106 108 107 105 99 98 95 88 84 84 82 79 79 79 79 80 80
47 335 19 18 5 347 19 14 356 27 20 11 345 335 19 63 356 281 346 356 -0 10 25 47 80 98 103 106 104 104 105 108 119 115 110 108 107 107 104 103 105 101 99 94 88 83 80 82 81 80 79 77 75 75
67 23 74 344 36 27 110 28 27 8 321 339 299 19 65 90 247 332 346 2 17 41 66 79 97 103 108 109 107 107 108 111 111 108 109 110 108 108 108 105 99 98 99 95 91 84 77 74 69 63 61 62 63 64
31 353 8 22 59 46 55 85 308 324 309 309 105 315 327 23 358 9 24 53 72 88 100 105 107 107 107 108 108 107 106 107 110 111 116 116 116 113 112 108 100 95 94 88 82 79 69 58 54 50 47 44 39 38
8 5 25 48 73 30 17 24 359 18 37 59 106 87 55 61 49 57 68 79 93 107 117 118 115 113 111 107 103 104 110 112 115 117 114 119 123 120 116 109 103 93 85 79 71 60 56 55 55 54 54 55 53 47
352 357 21 57 148 176 277 315 311 332 353 24 53 66 84 58 54 51 62 82 101 115 125 126 126 122 114 107 107 108 110 113 117 117 122 127 130 131 124 112 98 82 68 62 57 49 44 43 44 43 43 41 37 33
336 8 342 20 237 260 307 316 266 286 300 315 336 348 358 20 85 73 49 87 111 118 136 146 144 136 120 110 99 104 115 121 124 125 131 134 136 137 135 123 95 60 37 29 21 16 16 16 16 15 13 13 11 3
312 336 338 315 313 284 328 349 0 310 244 268 287 330 345 355 103 140 105 84 96 101 127 150 160 159 143 123 106 103 118 126 132 138 141 142 141 141 154 144 39 3 357 353 350 351 353 354 355 355 351 348 344 340
Wind_Speed_850mb
81 82 83 86 86 87 84 83 82 81 78 72 69 69 72 65 67 66 85 95 75 27 50 37 40 31 17 49 18 21 11 2 5 6 8 8 7 9 3 7 8 6 4 5 7 15 14 43 12 13 7 18 32 35
81 83 85 86 87 88 90 86 82 77 77 72 70 72 66 64 68 67 87 60 72 54 20 19 29 38 55 53 44 25 18 16 24 7 1 6 2 3 9 6 5 5 8 4 1 1 6 33 38 27 26 19 32 37
84 89 93 94 91 87 85 86 83 77 77 67 63 69 73 70 66 67 67 67 52 38 26 33 43 54 53 67 54 27 26 40 24 23 11 6 6 8 6 9 3 9 5 6 8 5 14 13 14 2 10 15 12 17
87 96 103 100 97 96 88 78 78 77 71 64 58 59 68 73 66 70 62 67 70 23 8 14 26 42 45 52 73 74 69 39 43 41 9 6 6 13 8 8 10 10 9 8 9 8 20 9 20 13 14 9 1 8
92 105 107 100 101 104 84 74 73 68 64 64 61 56 58 56 53 53 58 53 58 31 10 8 14 32 60 60 68 80 74 57 36 13 8 8 10 8 0 5 4 12 13 8 17 2 8 9 14 13 8 4 5 11
99 109 112 90 96 85 56 64 64 59 63 62 61 60 57 52 42 34 40 52 46 32 10 6 25 48 56 65 58 70 77 64 45 18 7 11 10 18 7 7 1 11 6 9 3 11 1 5 9 6 8 14 17 21
102 111 99 81 75 66 58 61 68 60 58 63 66 61 54 47 44 37 8 13 37 26 12 5 6 15 43 43 48 42 55 20 17 14 7 13 10 11 4 7 5 3 1 4 4 6 9 11 10 17 16 19 25 24
99 104 106 74 72 67 52 45 42 45 61 62 52 50 50 51 48 46 48 28 15 21 14 5 2 4 21 12 7 12 14 14 11 11 5 5 4 6 4 7 10 9 6 7 4 13 12 16 13 19 23 27 28 28
92 103 113 77 59 62 30 35 35 30 35 36 23 23 19 20 25 41 25 20 18 13 6 4 5 1 2 4 8 7 7 4 6 5 5 14 2 7 2 6 9 13 9 20 22 19 7 11 20 25 28 26 33 37
83 91 97 94 45 44 43 38 32 29 32 27 13 8 7 8 26 37 20 11 7 14 14 5 9 2 10 5 2 4 11 3 3 7 14 5 2 9 10 11 12 12 14 20 24 9 24 25 31 34 34 31 33 39
76 80 84 86 73 46 45 45 43 35 26 14 10 9 19 16 19 11 10 11 11 7 15 10 16 4 25 6 0 5 4 1 5 8 10 1 4 4 9 9 11 14 15 16 20 23 24 31 37 41 41 35 34 35
75 74 71 76 72 60 51 45 45 24 17 14 9 6 7 8 10 12 4 4 9 3 8 3 14 15 12 13 5 4 5 3 9 3 6 4 3 13 17 16 14 16 17 18 18 22 22 24 28 36 39 39 37 36
77 70 69 69 60 70 56 50 33 12 16 8 5 4 12 11 14 9 3 5 5 10 17 16 5 10 9 12 2 4 4 7 4 5 6 3 1 23 25 23 17 16 18 17 17 19 21 22 23 30 35 33 35 33
76 66 60 58 58 62 67 50 19 9 6 4 6 8 7 8 7 2 1 4 4 7 15 11 7 4 8 6 3 3 2 3 5 3 7 1 16 27 25 20 22 23 22 22 22 21 21 22 21 23 27 28 24 21
70 57 50 57 69 59 62 41 25 9 5 6 7 4 6 6 8 5 8 8 12 10 11 2 5 7 5 7 4 5 7 5 3 5 3 15 22 25 24 21 21 21 24 24 20 18 17 17 18 20 18 18 15 12
63 68 61 69 65 57 55 39 28 9 10 11 18 11 7 6 5 10 16 9 19 7 6 7 4 8 7 3 6 8 5 7 1 5 14 21 21 22 23 20 18 19 21 23 20 17 17 15 14 15 14 9 7 5
67 71 70 55 47 51 40 19 11 13 14 13 10 23 16 20 14 7 9 18 17 8 3 4 9 7 3 6 6 6 1 2 3 12 17 19 22 23 20 18 16 15 14 16 18 18 16 15 12 7 6 13 11 10
64 63 38 41 44 30 21 7 12 15 17 19 11 12 37 22 11 17 15 24 10 8 6 4 6 11 5 4 5 5 8 12 6 10 16 19 18 18 20 17 15 14 14 14 16 15 12 11 12 16 14 14 15 17
39 32 40 33 25 7 8 17 16 11 14 14 19 20 24 25 39 25 15 22 29 22 14 10 11 4 2 4 5 9 12 19 17 18 15 19 17 14 12 12 13 15 16 18 18 21 20 17 17 15 15 17 23 24
30 27 28 29 8 7 12 16 15 16 9 9 13 13 14 15 15 27 29 27 23 12 15 8 3 2 5 15 18 22 19 17 19 15 11 13 11 10 11 14 18 20 23 24 26 25 25 26 26 24 24 26 29 34
25 25 27 18 17 27 17 13 16 12 11 13 9 8 11 21 17 20 22 22 18 12 4 8 11 12 11 13 13 14 11 11 9 5 6 4 7 12 18 20 22 25 29 31 31 31 31 34 31 29 29 34 37 40
22 22 16 21 18 14 18 23 11 8 9 9 8 10 11 8 11 17 13 24 11 10 11 15 16 15 11 10 9 8 6 6 4 5 7 10 16 20 23 26 26 31 33 34 33 33 33 32 30 30 31 34 32 33
14 14 16 25 12 17 9 17 10 14 7 5 6 8 8 8 9 9 11 10 9 18 18 13 11 10 8 8 8 5 5 5 10 14 17 20 24 27 28 30 31 34 36 35 32 32 33 32 30 30 30 30 29 30
17 16 21 19 30 10 14 18 13 13 10 9 7 6 7 11 9 12 4 6 15 20 15 13 5 2 8 7 10 13 15 14 19 23 25 27 30 31 30 32 32 33 33 31 28 30 30 30 29 28 27 26 26 26
13 28 19 17 24 17 15 12 13 9 7 7 6 7 6 10 5 6 1 10 16 22 19 16 14 12 14 17 18 18 18 18 21 27 28 27 29 29 29 29 30 31 30 23 25 26 29 27 26 25 25 24 24 24
17 23 13 13 11 10 4 8 10 7 5 9 5 13 9 6 8 2 4 16 14 19 19 15 13 15 16 18 20 19 21 22 21 24 25 23 23 22 24 25 26 29 27 26 26 23 25 25 24 22 21 21 21 21
12 8 13 17 9 8 7 6 5 5 7 9 6 8 5 7 2 4 7 12 13 14 13 11 11 14 17 20 21 21 20 16 17 24 27 24 22 22 22 20 23 26 24 23 23 22 21 20 20 20 20 20 18 16
10 11 2 14 7 11 4 5 5 5 5 10 7 8 4 2 2 6 5 9 9 9 11 14 18 20 22 23 24 25 25 23 23 24 24 23 23 22 22 21 20 22 21 20 19 20 19 19 20 21 19 17 16 14
7 16 6 8 4 7 6 2 3 6 10 4 2 1 2 3 8 7 5 6 8 10 13 17 21 23 23 23 22 20 19 16 15 15 17 20 19 18 17 17 17 17 16 16 15 15 17 18 18 17 16 16 14 13
10 18 6 5 6 4 8 7 8 8 8 5 4 4 5 7 13 12 10 9 9 11 14 16 17 17 15 13 13 12 13 14 14 15 12 12 13 13 13 13 13 14 14 13 14 14 15 14 13 12 11 10 9 9
9 10 3 3 3 3 1 4 6 7 7 7 6 5 2 2 7 15 12 10 11 12 12 12 13 14 14 13 11 12 12 11 11 10 11 11 11 10 10 9 9 9 9 9 10 10 10 10 10 10 11 12 12 12
7 5 2 2 3 5 7 6 4 3 4 4 3 4 3 2 2 3 7 7 8 8 9 10 11 11 10 10 10 9 10 10 10 10 10 9 9 8 7 5 5 5 6 7 7 9 10 11 11 12 13 13 13 13
5 4 3 4 3 1 5 12 3 2 4 2 2 2 2 1 1 4 6 7 7 7 7 9 11 10 9 8 7 7 8 8 8 9 9 8 7 5 3 2 1 3 5 6 7 9 10 11 11 11 12 13 13 14
Wind_Direction_850mb
310 309 307 305 305 302 300 298 294 291 290 288 289 285 278 276 266 260 263 248 233 256 268 235 229 239 212 204 195 186 107 301 39 118 138 207 161 221 72 241 217 212 256 256 242 220 239 333 23 68 351 355 4 11
312 312 308 304 302 299 297 295 294 295 290 284 283 284 286 277 271 265 256 265 239 235 224 188 255 259 242 233 221 179 180 163 180 96 14 91 194 48 153 247 266 287 170 217 231 168 157 78 109 114 74 44 18 17
315 316 313 311 307 302 299 293 291 292 293 281 284 285 280 281 271 262 256 258 224 220 213 239 234 257 247 235 223 206 221 224 201 214 159 190 197 131 162 238 171 303 180 187 58 257 203 199 270 84 106 59 21 26
319 317 313 306 300 296 293 294 290 288 292 281 284 294 280 272 269 264 243 258 235 218 194 226 246 232 254 239 241 238 234 229 231 220 183 163 185 185 191 190 191 195 127 189 253 264 271 252 130 158 144 106 143 299
322 322 319 311 308 303 283 285 289 287 291 284 285 284 293 291 268 259 269 264 231 198 177 184 237 251 246 245 239 235 228 220 197 185 195 191 172 130 134 100 187 193 199 201 255 316 287 78 112 106 116 118 239 287
328 327 325 316 315 310 280 284 286 289 284 284 285 287 279 284 295 270 231 238 229 226 247 232 256 248 252 249 245 236 229 212 205 172 172 182 196 167 162 183 268 145 188 266 243 289 125 184 128 36 314 317 307 313
334 336 334 324 320 322 299 293 287 288 285 287 286 277 267 264 265 262 209 185 176 183 203 210 225 194 221 218 211 205 200 189 191 152 164 166 176 186 133 184 114 78 46 239 281 333 158 132 271 326 314 299 303 307
337 339 342 328 329 317 307 306 302 298 296 293 290 273 260 258 255 253 250 237 213 198 207 186 50 185 175 167 145 145 148 146 142 133 97 117 43 118 216 66 33 317 325 214 314 344 295 289 299 304 306 303 297 297
335 341 350 336 337 354 335 319 315 322 344 344 307 266 252 245 232 232 219 220 197 193 118 83 152 222 88 80 112 103 129 130 143 136 210 136 273 202 29 15 5 351 347 302 314 320 252 307 313 312 313 307 305 304
333 339 345 356 348 354 356 350 336 331 338 345 352 49 57 19 125 134 133 126 75 30 51 80 349 80 7 14 35 101 24 126 132 245 125 124 132 106 35 11 346 329 326 324 334 302 307 312 316 318 320 321 313 307
330 334 340 348 2 4 357 358 341 319 330 347 14 34 70 56 49 52 54 42 3 45 22 13 22 353 21 54 337 42 158 180 130 249 145 180 292 125 9 7 339 327 322 318 309 309 310 310 314 314 317 319 313 305
329 329 332 339 354 350 352 348 3 14 45 48 83 63 12 50 62 74 31 15 44 114 4 21 336 12 10 11 15 37 163 86 223 146 102 209 81 20 356 350 341 334 322 309 308 309 307 307 309 309 315 320 318 315
323 323 328 328 333 352 344 337 333 322 328 307 311 34 8 345 50 88 97 347 52 356 1 1 32 13 2 14 348 344 203 218 80 57 198 205 50 352 348 342 339 337 325 318 320 318 315 313 310 311 316 318 317 316
321 318 318 326 328 328 342 336 336 326 319 295 48 30 89 337 50 93 119 117 65 6 355 359 332 59 355 42 3 2 11 53 76 137 218 67 350 340 344 341 334 342 345 343 342 334 325 319 320 320 321 323 324 321
323 321 317 320 328 324 326 325 319 298 221 82 30 93 52 155 68 54 61 91 26 17 20 62 57 26 343 62 53 12 353 253 211 223 238 336 344 347 349 349 347 347 352 354 347 347 345 338 337 333 331 335 336 332
326 318 317 321 326 318 306 304 316 253 79 68 56 82 101 78 356 37 37 43 21 24 36 42 78 48 355 76 65 178 109 248 288 234 324 339 349 355 355 354 350 349 351 352 356 356 358 353 353 354 351 348 11 27
321 319 321 324 321 313 311 286 297 56 64 52 47 56 71 67 82 62 38 9 10 25 80 73 64 209 322 38 357 328 211 141 250 326 337 346 346 347 351 352 350 350 349 357 3 6 10 13 9 358 35 53 57 77
322 322 335 329 328 327 320 22 81 67 66 57 75 54 63 68 66 48 35 26 43 70 46 111 93 49 107 174 289 308 341 335 328 346 339 344 349 347 348 354 359 3 3 6 9 9 18 38 58 63 67 77 92 97
330 338 336 338 328 329 33 31 36 84 71 85 87 73 77 77 58 60 64 56 65 77 101 61 65 78 255 244 256 319 334 330 320 332 342 344 345 344 355 5 29 43 48 51 54 56 56 60 68 77 88 101 104 108
352 348 14 22 42 63 68 35 42 72 69 73 70 58 70 71 64 52 59 64 68 56 49 48 144 314 292 304 307 305 309 308 310 322 344 356 9 31 62 73 75 75 74 72 70 70 75 78 79 86 95 103 110 110
2 13 17 17 43 54 68 42 58 62 89 78 74 63 81 60 43 36 31 27 60 39 43 45 5 350 335 323 318 320 320 321 328 341 355 25 70 85 90 88 90 89 86 82 81 81 83 82 85 92 102 103 106 112
2 7 21 35 50 62 62 35 58 60 68 89 58 47 46 37 28 22 23 46 58 27 1 345 349 345 351 355 346 341 354 22 68 112 125 121 111 102 98 96 98 91 88 86 87 87 88 89 94 98 101 101 105 107
2 24 46 26 67 45 18 18 53 28 63 2 39 43 22 28 33 22 66 58 52 360 351 355 358 0 1 8 3 14 70 99 130 124 120 116 109 103 102 100 97 96 94 90 89 91 91 92 93 94 95 99 103 105
42 48 29 35 24 4 354 25 26 22 45 30 41 26 11 10 5 55 55 36 2 10 26 28 26 24 52 78 89 91 99 111 119 118 115 116 113 107 104 101 99 96 91 90 91 91 90 89 89 90 90 93 96 97
64 15 23 4 15 22 23 5 356 22 38 341 47 10 353 348 61 49 48 348 7 18 30 47 66 85 100 92 87 90 99 112 120 119 115 116 111 109 107 105 102 97 93 91 91 90 89 87 87 87 89 91 91 91
65 21 38 2 1 42 328 24 12 352 340 2 7 325 346 71 57 316 272 344 355 8 17 34 60 83 95 100 100 102 107 113 114 116 110 107 107 106 108 107 105 99 98 95 88 84 84 82 79 79 79 79 80 80
47 335 19 18 5 347 19 14 356 27 20 11 345 335 19 63 356 281 346 356 -0 10 25 47 80 98 103 106 104 104 105 108 119 115 110 108 107 107 104 103 105 101 99 94 88 83 80 82 81 80 79 77 75 75
67 23 74 344 36 27 110 28 27 8 321 339 299 19 65 90 247 332 346 2 17 41 66 79 97 103 108 109 107 107 108 111 111 108 109 110 108 108 108 105 99 98 99 95 91 84 77 74 69 63 61 62 63 64
31 353 8 22 59 46 55 85 308 324 309 309 105 315 327 23 358 9 24 53 72 88 100 105 107 107 107 108 108 107 106 107 110 111 116 116 116 113 112 108 100 95 94 88 82 79 69 58 54 50 47 44 39 38
8 5 25 48 73 30 17 24 359 18 37 59 106 87 55 61 49 57 68 79 93 107 117 118 115 113 111 107 103 104 110 112 115 117 114 119 123 120 116 109 103 93 85 79 71 60 56 55 55 54 54 55 53 47
352 357 21 57 148 176 277 315 311 332 353 24 53 66 84 58 54 51 62 82 101 115 125 126 126 122 114 107 107 108 110 113 117 117 122 127 130 131 124 112 98 82 68 62 57 49 44 43 44 43 43 41 37 33
336 8 342 20 237 260 307 316 266 286 300 315 336 348 358 20 85 73 49 87 111 118 136 146 144 136 120 110 99 104 115 121 124 125 131 134 136 137 135 123 95 60 37 29 21 16 16 16 16 15 13 13 11 3
312 336 338 315 313 284 328 349 0 310 244 268 287 330 345 355 103 140 105 84 96 101 127 150 160 159 143 123 106 103 118 126 132 138 141 142 141 141 154 144 39 3 357 353 350 351 353 354 355 355 351 348 344 340